sat.trackr.live / text

‹ back to catalog

STARLINK-4336

NORAD 53051 · 2022-077J

PAYLOAD ACTIVE UNKNOWN

§ Identity

Operator
Country
US
Launch date
2022-07-11
Launch site
AFWTR
Launch vehicle
Mass (kg)
RCS (m²)

Purposes: comms

External: N2YO · Heavens-Above · Gunter

§ Orbital elements

Epoch: 2026-05-25T01:31:14.972736Z

Period
95.64 min
Inclination
97.4481°
Eccentricity
0.0001304
Mean motion
15.05665358 rev/d
Perigee alt
548.6 km
Apogee alt
550.4 km
Semi-major
6,927.6 km
B*
-1.2720e-4
RAAN
324.9444°
Arg perigee
94.5571°
Mean anomaly
265.5805°
Rev number
21,239

§ Raw data

STARLINK-43361 53051U 22077J   26145.06336774 -.00001894  00000+0 -12720-3 0  99942 53051  97.4481 324.9444 0001304  94.5571 265.5805 15.05665358212390

JSON: /api/v1/satellites/53051 · /tle

For live sub-satellite position, see the globe view (requires WebGL).

§ Visibility from observer

Set your observer location to see the next 7 days of passes ≥ 10°. The values pass through the URL so the page stays shareable.

No JS? Fill the form by hand. The geolocation button needs JavaScript.